Location: Maccacari
(45.1333°N, 11.1333°E)
Time: 07:38:43
(UTC+00:00)

Cosmos 1464 Rocket - Pass Details

Date: 18 September 2020
Orbit: 953 x 1000 km, 82.9° (Epoch: 29 October)

Event Time Altitude Azimuth Distance (km) Brightness Sun altitude
Rises 17:56:58 0° 159° (SSE) 3,615 6.7 -7.3°
Reaches altitude 10° 17:59:38 10° 151° (SSE) 2,675 5.9 -7.8°
Maximum altitude 18:05:06 36° 87° (E) 1,478 4.5 -8.7°
Drops below altitude 10° 18:10:38 10° 24° (NNE) 2,704 6.2 -9.7°
Sets 18:13:19 0° 16° (NNE) 3,661 7.0 -10.1°
